Location: Winthrop
(48.4780°N, 120.1850°W)
Time: 17:28:21
(UTC-07:00)

Explorer 7 - Pass Details

Date: 02 February 2023
Orbit: 478 x 657 km, 50.3° (Epoch: 30 March)

Event Time Altitude Azimuth Distance (km) Brightness Sun altitude
Rises 16:13:24 0° 285° (WNW) 2,822 11.1 6.1°
Reaches altitude 10° 16:15:37 10° 286° (WNW) 1,949 10.3 5.8°
Maximum altitude 16:20:08 88° 17° (NNE) 632 7.2 5.1°
Drops below altitude 10° 16:24:51 10° 106° (ESE) 2,041 9.3 4.5°
Sets 16:27:14 0° 107° (ESE) 2,966 10.1 4.1°
